| time (UTC) | temp F | wind direction | speed MPH | gust MPH | rain 1hr in | rain 24hr in | rain mn in | humidity % | barometer mb |
| 20260906022855 | 59 | 216 | 0.0 | 0.0 | 0.00 | 0.14 | 0.14 | 95 | 1017.6 |
| 20260906022349 | 59 | 216 | 0.0 | 0.0 | 0.00 | 0.14 | 0.14 | 95 | 1017.7 |
| 20260906021845 | 59 | 216 | 0.0 | 0.0 | 0.00 | 0.14 | 0.14 | 94 | 1017.3 |
| 20260906021344 | 59 | 216 | 0.0 | 0.0 | 0.00 | 0.14 | 0.14 | 94 | 1017.2 |
| 20260906020834 | 59 | 216 | 0.0 | 0.0 | 0.00 | 0.14 | 0.14 | 93 | 1017.6 |
| 20260906020333 | 59 | 216 | 0.0 | 0.0 | 0.00 | 0.14 | 0.14 | 93 | 1017.5 |
| 20260906015828 | 59 | 216 | 0.0 | 0.0 | 0.00 | 0.14 | 0.14 | 93 | 1017.1 |
| 20260906015326 | 60 | 216 | 0.0 | 0.0 | 0.00 | 0.14 | 0.14 | 92 | 1017.6 |
| 20260906014821 | 60 | 216 | 0.0 | 0.0 | 0.00 | 0.14 | 0.14 | 92 | 1017.4 |
| 20260906014316 | 60 | 216 | 0.0 | 0.0 | 0.00 | 0.14 | 0.14 | 92 | 1017.5 |
| 20260906013812 | 60 | 216 | 0.0 | 0.0 | 0.00 | 0.14 | 0.14 | 92 | 1017.2 |
| 20260906013307 | 60 | 216 | 0.0 | 0.0 | 0.00 | 0.14 | 0.14 | 91 | 1017.1 |
| 20260906012803 | 61 | 216 | 0.0 | 0.0 | 0.00 | 0.14 | 0.14 | 91 | 1017.2 |
| 20260906012257 | 61 | 216 | 0.0 | 0.0 | 0.00 | 0.14 | 0.14 | 91 | 1017.3 |
| 20260906011753 | 61 | 216 | 0.0 | 0.0 | 0.00 | 0.14 | 0.14 | 91 | 1017.5 |
| 20260906011252 | 61 | 216 | 0.0 | 0.0 | 0.00 | 0.14 | 0.14 | 90 | 1017.4 |
| 20260906010748 | 62 | 215 | 1.0 | 1.0 | 0.00 | 0.14 | 0.14 | 91 | 1017.2 |
| 20260906010244 | 62 | 215 | 0.0 | 0.0 | 0.00 | 0.14 | 0.14 | 90 | 1017.1 |
| 20260906005739 | 62 | 215 | 0.0 | 0.0 | 0.00 | 0.14 | 0.14 | 90 | 1017.0 |
| 20260906005238 | 62 | 214 | 0.0 | 0.0 | 0.00 | 0.14 | 0.14 | 90 | 1016.9 |
| 20260906004737 | 62 | 214 | 0.0 | 0.0 | 0.00 | 0.14 | 0.14 | 90 | 1017.0 |
| 20260906004232 | 62 | 214 | 0.0 | 0.0 | 0.00 | 0.14 | 0.14 | 90 | 1017.2 |
| 20260906003727 | 62 | 213 | 0.0 | 0.0 | 0.00 | 0.14 | 0.14 | 89 | 1017.2 |
| 20260906003217 | 62 | 213 | 0.0 | 0.0 | 0.00 | 0.14 | 0.14 | 88 | 1017.1 |
| 20260906002711 | 63 | 213 | 0.0 | 0.0 | 0.00 | 0.14 | 0.14 | 87 | 1017.1 |
| 20260906002206 | 63 | 213 | 0.0 | 0.0 | 0.00 | 0.14 | 0.14 | 86 | 1017.0 |
| 20260906001701 | 64 | 213 | 0.0 | 0.0 | 0.00 | 0.14 | 0.14 | 87 | 1017.1 |
| 20260906001201 | 64 | 213 | 1.0 | 1.0 | 0.00 | 0.14 | 0.14 | 86 | 1017.1 |
| 20260906000657 | 64 | 213 | 0.0 | 0.0 | 0.00 | 0.14 | 0.14 | 84 | 1016.8 |
| 20260906000152 | 65 | 214 | 1.0 | 1.0 | 0.00 | 0.14 | 0.14 | 82 | 1017.1 |
| 20260905235651 | 66 | 198 | 1.0 | 1.0 | 0.00 | 0.14 | 0.14 | 80 | 1016.7 |
| 20260905235146 | 66 | 197 | 0.0 | 0.0 | 0.00 | 0.14 | 0.14 | 78 | 1016.6 |
| 20260905234641 | 66 | 197 | 1.0 | 1.0 | 0.00 | 0.14 | 0.14 | 78 | 1016.6 |
| 20260905234137 | 67 | 194 | 0.0 | 0.0 | 0.00 | 0.14 | 0.14 | 77 | 1016.5 |
| 20260905233632 | 68 | 199 | 1.0 | 1.0 | 0.00 | 0.14 | 0.14 | 78 | 1016.5 |
| 20260905233126 | 68 | 198 | 0.0 | 0.0 | 0.00 | 0.14 | 0.14 | 77 | 1016.7 |
| 20260905232622 | 69 | 191 | 0.0 | 0.0 | 0.00 | 0.14 | 0.14 | 75 | 1016.7 |
| 20260905232118 | 69 | 166 | 1.0 | 1.0 | 0.00 | 0.14 | 0.14 | 74 | 1016.3 |
| 20260905231617 | 70 | 168 | 1.0 | 1.0 | 0.00 | 0.14 | 0.14 | 71 | 1016.2 |
| 20260905231114 | 70 | 53 | 0.0 | 0.0 | 0.00 | 0.14 | 0.14 | 74 | 1016.6 |
| 20260905230609 | 71 | 6 | 1.0 | 1.0 | 0.00 | 0.14 | 0.14 | 72 | 1016.3 |
| 20260905230106 | 71 | 313 | 0.0 | 0.0 | 0.00 | 0.14 | 0.14 | 71 | 1016.3 |
| 20260905225601 | 72 | 39 | 1.0 | 1.0 | 0.00 | 0.14 | 0.14 | 67 | 1016.2 |
| 20260905225055 | 72 | 117 | 0.0 | 0.0 | 0.00 | 0.14 | 0.14 | 68 | 1016.2 |
| 20260905224550 | 73 | 142 | 2.0 | 2.0 | 0.00 | 0.14 | 0.14 | 70 | 1016.1 |
| 20260905224049 | 73 | 348 | 1.0 | 1.0 | 0.00 | 0.14 | 0.14 | 71 | 1016.2 |
| 20260905223547 | 73 | 32 | 2.0 | 2.0 | 0.00 | 0.14 | 0.14 | 68 | 1016.1 |
| 20260905223042 | 73 | 27 | 1.0 | 1.0 | 0.00 | 0.14 | 0.14 | 70 | 1016.1 |
| 20260905222542 | 73 | 351 | 2.0 | 3.0 | 0.00 | 0.14 | 0.14 | 71 | 1016.0 |
| 20260905222037 | 73 | 147 | 1.0 | 1.0 | 0.00 | 0.14 | 0.14 | 71 | 1016.3 |
| 20260905221534 | 73 | 292 | 3.0 | 3.0 | 0.00 | 0.14 | 0.14 | 70 | 1015.8 |
| 20260905221030 | 74 | 166 | 1.0 | 1.0 | 0.00 | 0.14 | 0.14 | 69 | 1015.7 |
| 20260905220525 | 74 | 359 | 1.0 | 1.0 | 0.00 | 0.14 | 0.14 | 69 | 1015.9 |
| 20260905220021 | 74 | 80 | 1.0 | 1.0 | 0.00 | 0.14 | 0.14 | 68 | 1016.0 |
| 20260905215515 | 74 | 229 | 2.0 | 2.0 | 0.00 | 0.14 | 0.14 | 67 | 1015.9 |
| 20260905215012 | 75 | 38 | 1.0 | 1.0 | 0.00 | 0.14 | 0.14 | 70 | 1015.7 |
| 20260905214507 | 77 | 34 | 4.0 | 5.0 | 0.00 | 0.14 | 0.14 | 66 | 1015.7 |
| 20260905214002 | 77 | 4 | 0.0 | 0.0 | 0.00 | 0.14 | 0.14 | 69 | 1015.6 |
| 20260905213458 | 76 | 352 | 1.0 | 1.0 | 0.00 | 0.14 | 0.14 | 70 | 1015.4 |
| 20260905212952 | 75 | 343 | 1.0 | 1.0 | 0.00 | 0.14 | 0.14 | 71 | 1015.6 |
| 20260905212447 | 75 | 311 | 2.0 | 2.0 | 0.00 | 0.14 | 0.14 | 72 | 1015.6 |
| 20260905211946 | 74 | 207 | 1.0 | 1.0 | 0.00 | 0.14 | 0.14 | 75 | 1015.7 |
| 20260905211442 | 75 | 302 | 0.0 | 0.0 | 0.00 | 0.14 | 0.14 | 76 | 1015.6 |
| 20260905210938 | 75 | 246 | 2.0 | 2.0 | 0.00 | 0.14 | 0.14 | 74 | 1015.5 |
| 20260905210433 | 75 | 42 | 1.0 | 1.0 | 0.00 | 0.14 | 0.14 | 73 | 1015.4 |
| 20260905205932 | 75 | 242 | 1.0 | 1.0 | 0.00 | 0.14 | 0.14 | 74 | 1015.4 |
| 20260905205427 | 75 | 19 | 1.0 | 1.0 | 0.00 | 0.14 | 0.14 | 74 | 1015.4 |
| 20260905204926 | 75 | 35 | 2.0 | 2.0 | 0.00 | 0.14 | 0.14 | 73 | 1015.7 |
| 20260905204422 | 76 | 317 | 3.0 | 3.0 | 0.00 | 0.14 | 0.14 | 72 | 1015.6 |
| 20260905203921 | 76 | 342 | 1.0 | 1.0 | 0.00 | 0.14 | 0.14 | 72 | 1015.7 |
| 20260905203417 | 75 | 295 | 2.0 | 2.0 | 0.00 | 0.14 | 0.14 | 75 | 1015.5 |
| 20260905202912 | 75 | 18 | 2.0 | 2.0 | 0.00 | 0.14 | 0.14 | 76 | 1015.8 |
| 20260905202407 | 76 | 21 | 2.0 | 2.0 | 0.00 | 0.14 | 0.14 | 75 | 1015.7 |
| 20260905201902 | 77 | 255 | 2.0 | 2.0 | 0.00 | 0.14 | 0.14 | 74 | 1015.9 |
| 20260905201357 | 77 | 338 | 2.0 | 3.0 | 0.00 | 0.14 | 0.14 | 76 | 1015.9 |
| 20260905200851 | 77 | 156 | 1.0 | 1.0 | 0.00 | 0.14 | 0.14 | 75 | 1015.9 |
| 20260905200348 | 77 | 153 | 1.0 | 1.0 | 0.00 | 0.14 | 0.14 | 75 | 1015.7 |
| 20260905195845 | 78 | 357 | 2.0 | 2.0 | 0.00 | 0.14 | 0.14 | 73 | 1015.7 |
| 20260905195341 | 78 | 45 | 1.0 | 1.0 | 0.00 | 0.14 | 0.14 | 73 | 1016.0 |
| 20260905194836 | 78 | 40 | 2.0 | 2.0 | 0.00 | 0.14 | 0.14 | 74 | 1015.8 |
| 20260905194331 | 78 | 47 | 1.0 | 1.0 | 0.00 | 0.14 | 0.14 | 75 | 1016.0 |
| 20260905193830 | 78 | 51 | 2.0 | 2.0 | 0.00 | 0.14 | 0.14 | 72 | 1015.8 |
| 20260905193325 | 79 | 79 | 1.0 | 1.0 | 0.00 | 0.14 | 0.14 | 74 | 1015.7 |
| 20260905192821 | 78 | 74 | 1.0 | 1.0 | 0.00 | 0.14 | 0.14 | 75 | 1015.9 |
| 20260905192317 | 78 | 158 | 1.0 | 1.0 | 0.00 | 0.14 | 0.14 | 75 | 1015.9 |
| 20260905191815 | 77 | 39 | 3.0 | 5.0 | 0.00 | 0.14 | 0.14 | 77 | 1015.6 |
| 20260905191314 | 77 | 353 | 3.0 | 3.0 | 0.00 | 0.14 | 0.14 | 77 | 1015.8 |
| 20260905190812 | 78 | 87 | 1.0 | 2.0 | 0.00 | 0.14 | 0.14 | 78 | 1015.6 |
| 20260905190307 | 78 | 91 | 1.0 | 1.0 | 0.00 | 0.14 | 0.14 | 77 | 1015.8 |
| 20260905185805 | 77 | 125 | 0.0 | 0.0 | 0.00 | 0.14 | 0.14 | 80 | 1015.8 |
| 20260905185300 | 77 | 73 | 0.0 | 0.0 | 0.00 | 0.14 | 0.14 | 82 | 1016.0 |
| 20260905184754 | 77 | 115 | 0.0 | 0.0 | 0.00 | 0.14 | 0.14 | 80 | 1016.0 |
| 20260905184253 | 77 | 148 | 0.0 | 0.0 | 0.00 | 0.14 | 0.14 | 82 | 1015.9 |
| 20260905183747 | 77 | 93 | 0.0 | 0.0 | 0.00 | 0.14 | 0.14 | 81 | 1016.0 |
| 20260905183242 | 77 | 77 | 0.0 | 0.0 | 0.00 | 0.14 | 0.14 | 82 | 1016.1 |
| 20260905182736 | 78 | 123 | 0.0 | 1.0 | 0.00 | 0.14 | 0.14 | 80 | 1016.2 |
| 20260905182236 | 78 | 141 | 1.0 | 1.0 | 0.00 | 0.14 | 0.14 | 78 | 1016.0 |
| 20260905181732 | 78 | 90 | 0.0 | 0.0 | 0.00 | 0.14 | 0.14 | 80 | 1016.2 |
| 20260905181231 | 78 | 94 | 1.0 | 1.0 | 0.00 | 0.14 | 0.14 | 79 | 1016.1 |
| 20260905180726 | 78 | 107 | 0.0 | 0.0 | 0.00 | 0.14 | 0.14 | 79 | 1016.0 |
| 20260905180220 | 78 | 121 | 1.0 | 1.0 | 0.00 | 0.14 | 0.14 | 76 | 1016.0 |
| 20260905175715 | 77 | 268 | 1.0 | 1.0 | 0.00 | 0.14 | 0.14 | 80 | 1016.2 |
| 20260905175209 | 76 | 286 | 1.0 | 1.0 | 0.00 | 0.14 | 0.14 | 85 | 1016.2 |
| 20260905174705 | 75 | 56 | 1.0 | 1.0 | 0.00 | 0.14 | 0.14 | 87 | 1016.2 |
| 20260905174201 | 75 | 34 | 0.0 | 0.0 | 0.00 | 0.14 | 0.14 | 87 | 1016.7 |
| 20260905173656 | 76 | 134 | 0.0 | 0.0 | 0.00 | 0.14 | 0.14 | 87 | 1016.2 |
| 20260905173151 | 76 | 134 | 0.0 | 0.0 | 0.00 | 0.14 | 0.14 | 86 | 1016.1 |
| 20260905172651 | 75 | 176 | 1.0 | 1.0 | 0.00 | 0.14 | 0.14 | 88 | 1016.3 |
| 20260905172145 | 75 | 157 | 1.0 | 1.0 | 0.00 | 0.14 | 0.14 | 89 | 1016.2 |
| 20260905171642 | 75 | 97 | 1.0 | 0.0 | 0.00 | 0.14 | 0.14 | 88 | 1016.5 |
| 20260905171137 | 75 | 98 | 0.0 | 0.0 | 0.00 | 0.14 | 0.14 | 88 | 1016.6 |
| 20260905170634 | 75 | 98 | 0.0 | 0.0 | 0.00 | 0.14 | 0.14 | 89 | 1016.5 |
| 20260905170129 | 75 | 76 | 0.0 | 0.0 | 0.00 | 0.14 | 0.14 | 90 | 1016.5 |
| 20260905165623 | 75 | 100 | 1.0 | 1.0 | 0.00 | 0.14 | 0.14 | 89 | 1016.3 |
| 20260905165119 | 75 | 139 | 0.0 | 0.0 | 0.00 | 0.14 | 0.14 | 90 | 1016.2 |
| 20260905164613 | 75 | 160 | 0.0 | 0.0 | 0.00 | 0.14 | 0.14 | 89 | 1016.3 |
| 20260905164112 | 75 | 44 | 1.0 | 1.0 | 0.00 | 0.14 | 0.14 | 88 | 1016.3 |
| 20260905163609 | 76 | 74 | 1.0 | 1.0 | 0.00 | 0.14 | 0.14 | 88 | 1016.3 |
| 20260905163105 | 76 | 74 | 0.0 | 1.0 | 0.00 | 0.14 | 0.14 | 87 | 1016.6 |
| 20260905162601 | 75 | 100 | 1.0 | 1.0 | 0.00 | 0.14 | 0.14 | 92 | 1016.3 |
| 20260905162100 | 74 | 12 | 2.0 | 2.0 | 0.00 | 0.14 | 0.14 | 93 | 1016.6 |
| 20260905161555 | 73 | 126 | 0.0 | 0.0 | 0.00 | 0.14 | 0.14 | 94 | 1016.7 |
| 20260905161053 | 73 | 120 | 0.0 | 0.0 | 0.07 | 0.14 | 0.14 | 95 | 1016.6 |
| 20260905160552 | 73 | 91 | 0.0 | 0.0 | 0.07 | 0.14 | 0.14 | 95 | 1016.5 |
| 20260905160051 | 73 | 90 | 0.0 | 0.0 | 0.00 | 0.13 | 0.13 | 94 | 1016.7 |
| 20260905155546 | 73 | 90 | 0.0 | 0.0 | 0.31 | 0.13 | 0.13 | 93 | 1016.7 |
| 20260905155044 | 73 | 96 | 0.0 | 0.0 | 0.71 | 0.13 | 0.13 | 92 | 1016.9 |
| 20260905154539 | 73 | 77 | 0.0 | 0.0 | 0.47 | 0.09 | 0.09 | 91 | 1016.9 |
| 20260905154035 | 74 | 57 | 1.0 | 1.0 | 0.07 | 0.01 | 0.01 | 89 | 1016.7 |
| 20260905153531 | 75 | 117 | 0.0 | 0.0 | 0.00 | 0.00 | 0.00 | 87 | 1016.5 |
| 20260905153031 | 75 | 117 | 0.0 | 0.0 | 0.00 | 0.00 | 0.00 | 85 | 1016.5 |
| 20260905152526 | 75 | 116 | 0.0 | 0.0 | 0.00 | 0.00 | 0.00 | 86 | 1016.6 |
| 20260905152021 | 76 | 99 | 1.0 | 2.0 | 0.00 | 0.00 | 0.00 | 86 | 1016.6 |
| 20260905151516 | 76 | 348 | 1.0 | 1.0 | 0.00 | 0.00 | 0.00 | 84 | 1016.5 |
| 20260905151011 | 76 | 117 | 1.0 | 1.0 | 0.00 | 0.00 | 0.00 | 83 | 1016.2 |
| 20260905150506 | 75 | 155 | 0.0 | 0.0 | 0.00 | 0.00 | 0.00 | 85 | 1016.3 |
| 20260905150004 | 75 | 122 | 0.0 | 0.0 | 0.00 | 0.00 | 0.00 | 85 | 1016.3 |
| 20260905145457 | 75 | 84 | 1.0 | 1.0 | 0.00 | 0.00 | 0.00 | 86 | 1016.2 |
| 20260905144956 | 75 | 116 | 0.0 | 0.0 | 0.00 | 0.00 | 0.00 | 85 | 1016.1 |
| 20260905144452 | 75 | 65 | 0.0 | 0.0 | 0.00 | 0.00 | 0.00 | 85 | 1016.1 |
| 20260905143951 | 75 | 88 | 1.0 | 1.0 | 0.00 | 0.00 | 0.00 | 86 | 1016.0 |
| 20260905143450 | 75 | 114 | 0.0 | 0.0 | 0.00 | 0.00 | 0.00 | 86 | 1016.0 |
| 20260905142945 | 75 | 185 | 0.0 | 0.0 | 0.00 | 0.00 | 0.00 | 87 | 1016.1 |
| 20260905142444 | 74 | 157 | 1.0 | 1.0 | 0.00 | 0.00 | 0.00 | 88 | 1016.0 |
| 20260905141940 | 74 | 115 | 1.0 | 1.0 | 0.00 | 0.00 | 0.00 | 90 | 1015.8 |
| 20260905141434 | 73 | 158 | 0.0 | 0.0 | 0.00 | 0.00 | 0.00 | 93 | 1015.8 |
| 20260905140931 | 73 | 154 | 0.0 | 0.0 | 0.00 | 0.00 | 0.00 | 95 | 1016.2 |
| 20260905140426 | 72 | 165 | 0.0 | 0.0 | 0.00 | 0.00 | 0.00 | 96 | 1016.0 |
| 20260905135924 | 72 | 158 | 1.0 | 1.0 | 0.00 | 0.00 | 0.00 | 98 | 1016.1 |
| 20260905135419 | 72 | 141 | 0.0 | 0.0 | 0.00 | 0.00 | 0.00 | 98 | 1016.2 |
| 20260905134915 | 72 | 161 | 0.0 | 0.0 | 0.00 | 0.00 | 0.00 | 98 | 1016.0 |
| 20260905134409 | 71 | 161 | 1.0 | 1.0 | 0.00 | 0.00 | 0.00 | 98 | 1016.3 |
| 20260905133903 | 71 | 150 | 0.0 | 0.0 | 0.00 | 0.00 | 0.00 | 99 | 1016.2 |
| 20260905133358 | 71 | 150 | 0.0 | 0.0 | 0.00 | 0.00 | 0.00 | 99 | 1016.1 |
| 20260905132857 | 71 | 144 | 0.0 | 0.0 | 0.00 | 0.00 | 0.00 | 98 | 1016.0 |
| 20260905132352 | 71 | 146 | 0.0 | 0.0 | 0.00 | 0.00 | 0.00 | 99 | 1016.3 |
| 20260905131847 | 71 | 128 | 0.0 | 0.0 | 0.00 | 0.00 | 0.00 | 99 | 1016.1 |
| 20260905131343 | 71 | 151 | 1.0 | 1.0 | 0.00 | 0.00 | 0.00 | 99 | 1016.2 |
| 20260905130837 | 70 | 140 | 0.0 | 0.0 | 0.00 | 0.00 | 0.00 | 99 | 1016.2 |
| 20260905130336 | 70 | 148 | 2.0 | 2.0 | 0.00 | 0.00 | 0.00 | 99 | 1016.2 |
| 20260905125832 | 70 | 183 | 1.0 | 1.0 | 0.00 | 0.00 | 0.00 | 99 | 1016.0 |
| 20260905125326 | 70 | 117 | 0.0 | 0.0 | 0.00 | 0.00 | 0.00 | 99 | 1016.2 |
| 20260905124822 | 70 | 90 | 2.0 | 2.0 | 0.00 | 0.00 | 0.00 | 99 | 1016.3 |
| 20260905124319 | 70 | 123 | 1.0 | 1.0 | 0.00 | 0.00 | 0.00 | 99 | 1016.2 |
| 20260905123819 | 70 | 136 | 0.0 | 0.0 | 0.00 | 0.00 | 0.00 | 99 | 1016.3 |
| 20260905123316 | 70 | 175 | 0.0 | 0.0 | 0.00 | 0.00 | 0.00 | 99 | 1016.3 |
| 20260905122815 | 69 | 214 | 0.0 | 0.0 | 0.00 | 0.00 | 0.00 | 99 | 1016.5 |
| 20260905122314 | 69 | 175 | 0.0 | 0.0 | 0.00 | 0.00 | 0.00 | 99 | 1016.5 |
| 20260905121810 | 69 | 112 | 0.0 | 0.0 | 0.00 | 0.00 | 0.00 | 99 | 1016.1 |
| 20260905121307 | 69 | 121 | 0.0 | 0.0 | 0.00 | 0.00 | 0.00 | 99 | 1015.8 |
| 20260905120805 | 69 | 133 | 1.0 | 1.0 | 0.00 | 0.00 | 0.00 | 99 | 1015.8 |
| 20260905120300 | 68 | 141 | 0.0 | 0.0 | 0.00 | 0.00 | 0.00 | 99 | 1016.0 |
| 20260905115754 | 68 | 141 | 0.0 | 0.0 | 0.00 | 0.00 | 0.00 | 99 | 1016.0 |
| 20260905115249 | 68 | 141 | 0.0 | 0.0 | 0.00 | 0.00 | 0.00 | 99 | 1015.9 |
| 20260905114748 | 68 | 141 | 0.0 | 0.0 | 0.00 | 0.00 | 0.00 | 99 | 1015.8 |
| 20260905114248 | 68 | 141 | 0.0 | 0.0 | 0.00 | 0.00 | 0.00 | 99 | 1015.8 |
| 20260905113747 | 68 | 140 | 0.0 | 0.0 | 0.00 | 0.00 | 0.00 | 99 | 1015.7 |
| 20260905113243 | 68 | 140 | 0.0 | 0.0 | 0.00 | 0.00 | 0.00 | 99 | 1015.7 |
| 20260905112738 | 68 | 141 | 0.0 | 0.0 | 0.00 | 0.00 | 0.00 | 99 | 1015.7 |
| 20260905112238 | 68 | 139 | 0.0 | 0.0 | 0.00 | 0.00 | 0.00 | 99 | 1015.7 |
| 20260905111733 | 68 | 139 | 0.0 | 0.0 | 0.00 | 0.00 | 0.00 | 99 | 1015.9 |
| 20260905111232 | 68 | 139 | 0.0 | 0.0 | 0.00 | 0.00 | 0.00 | 99 | 1016.0 |
| 20260905110732 | 67 | 140 | 0.0 | 0.0 | 0.00 | 0.00 | 0.00 | 99 | 1015.9 |
| 20260905110226 | 67 | 140 | 0.0 | 0.0 | 0.00 | 0.00 | 0.00 | 99 | 1016.2 |
| 20260905105722 | 67 | 140 | 0.0 | 0.0 | 0.00 | 0.00 | 0.00 | 99 | 1016.0 |
| 20260905105221 | 67 | 140 | 0.0 | 0.0 | 0.00 | 0.00 | 0.00 | 99 | 1015.9 |
| 20260905104715 | 68 | 138 | 0.0 | 0.0 | 0.00 | 0.00 | 0.00 | 99 | 1016.2 |
| 20260905104212 | 67 | 140 | 0.0 | 0.0 | 0.00 | 0.00 | 0.00 | 99 | 1016.5 |
| 20260905103707 | 67 | 140 | 0.0 | 0.0 | 0.00 | 0.00 | 0.00 | 99 | 1016.3 |
| 20260905103202 | 67 | 140 | 0.0 | 0.0 | 0.00 | 0.00 | 0.00 | 99 | 1016.8 |
| 20260905102658 | 67 | 140 | 0.0 | 0.0 | 0.00 | 0.00 | 0.00 | 99 | 1016.8 |
| 20260905102154 | 67 | 140 | 0.0 | 0.0 | 0.00 | 0.00 | 0.00 | 99 | 1016.8 |
| 20260905101653 | 67 | 140 | 0.0 | 0.0 | 0.00 | 0.00 | 0.00 | 99 | 1016.9 |
| 20260905101151 | 67 | 140 | 0.0 | 0.0 | 0.00 | 0.00 | 0.00 | 99 | 1017.0 |
| 20260905100648 | 67 | 140 | 0.0 | 0.0 | 0.00 | 0.00 | 0.00 | 99 | 1016.9 |
| 20260905100142 | 67 | 140 | 0.0 | 0.0 | 0.00 | 0.00 | 0.00 | 99 | 1017.0 |
| 20260905095636 | 67 | 140 | 0.0 | 0.0 | 0.00 | 0.00 | 0.00 | 99 | 1016.8 |
| 20260905095126 | 67 | 141 | 0.0 | 0.0 | 0.00 | 0.00 | 0.00 | 99 | 1016.7 |
| 20260905094621 | 67 | 140 | 0.0 | 0.0 | 0.00 | 0.00 | 0.00 | 99 | 1016.6 |
| 20260905094120 | 67 | 139 | 0.0 | 0.0 | 0.00 | 0.00 | 0.00 | 99 | 1016.2 |
| 20260905093614 | 67 | 147 | 0.0 | 0.0 | 0.00 | 0.00 | 0.00 | 99 | 1016.3 |
| 20260905093111 | 67 | 147 | 0.0 | 0.0 | 0.00 | 0.00 | 0.00 | 99 | 1016.0 |
| 20260905092605 | 67 | 136 | 0.0 | 0.0 | 0.00 | 0.00 | 0.00 | 99 | 1015.8 |
| 20260905092101 | 66 | 135 | 0.0 | 0.0 | 0.00 | 0.00 | 0.00 | 99 | 1015.7 |
| 20260905091600 | 66 | 135 | 0.0 | 0.0 | 0.00 | 0.00 | 0.00 | 99 | 1015.5 |
| 20260905091055 | 66 | 135 | 0.0 | 0.0 | 0.00 | 0.00 | 0.00 | 99 | 1015.5 |
| 20260905090555 | 66 | 134 | 0.0 | 0.0 | 0.00 | 0.00 | 0.00 | 99 | 1015.5 |
| 20260905090050 | 66 | 134 | 0.0 | 0.0 | 0.00 | 0.00 | 0.00 | 99 | 1015.4 |
| 20260905085548 | 66 | 176 | 0.0 | 0.0 | 0.00 | 0.00 | 0.00 | 98 | 1015.4 |
| 20260905085044 | 66 | 176 | 0.0 | 0.0 | 0.00 | 0.00 | 0.00 | 99 | 1015.8 |
| 20260905084543 | 66 | 176 | 0.0 | 0.0 | 0.00 | 0.00 | 0.00 | 98 | 1015.7 |
| 20260905084038 | 66 | 176 | 0.0 | 0.0 | 0.00 | 0.00 | 0.00 | 98 | 1015.7 |
| 20260905083533 | 66 | 176 | 0.0 | 0.0 | 0.00 | 0.00 | 0.00 | 98 | 1015.4 |
| 20260905083031 | 66 | 176 | 0.0 | 0.0 | 0.00 | 0.00 | 0.00 | 99 | 1015.1 |
| 20260905082525 | 66 | 176 | 0.0 | 0.0 | 0.00 | 0.00 | 0.00 | 98 | 1015.1 |
| 20260905082021 | 66 | 176 | 0.0 | 0.0 | 0.00 | 0.00 | 0.00 | 98 | 1015.1 |
| 20260905081514 | 66 | 176 | 0.0 | 0.0 | 0.00 | 0.00 | 0.00 | 98 | 1015.0 |
| 20260905081009 | 66 | 176 | 0.0 | 0.0 | 0.00 | 0.00 | 0.00 | 98 | 1014.9 |
| 20260905080503 | 66 | 176 | 0.0 | 0.0 | 0.00 | 0.00 | 0.00 | 98 | 1014.9 |
| 20260905080003 | 66 | 176 | 0.0 | 0.0 | 0.00 | 0.00 | 0.00 | 98 | 1015.1 |
| 20260905075457 | 66 | 176 | 0.0 | 0.0 | 0.00 | 0.00 | 0.00 | 98 | 1015.5 |
| 20260905074955 | 66 | 176 | 0.0 | 0.0 | 0.00 | 0.00 | 0.00 | 98 | 1015.5 |
| 20260905074451 | 66 | 176 | 0.0 | 0.0 | 0.00 | 0.00 | 0.00 | 98 | 1015.2 |
| 20260905073942 | 66 | 176 | 0.0 | 0.0 | 0.00 | 0.00 | 0.00 | 98 | 1015.3 |
| 20260905073436 | 66 | 176 | 0.0 | 0.0 | 0.00 | 0.00 | 0.00 | 98 | 1015.1 |
| 20260905072932 | 66 | 176 | 0.0 | 0.0 | 0.00 | 0.00 | 0.00 | 98 | 1015.3 |
| 20260905072427 | 66 | 176 | 0.0 | 0.0 | 0.00 | 0.00 | 0.00 | 98 | 1015.0 |
| 20260905071923 | 66 | 176 | 0.0 | 0.0 | 0.00 | 0.00 | 0.00 | 98 | 1015.6 |
| 20260905071419 | 66 | 176 | 0.0 | 0.0 | 0.00 | 0.00 | 0.00 | 98 | 1015.3 |
| 20260905070918 | 67 | 176 | 0.0 | 0.0 | 0.00 | 0.00 | 0.00 | 98 | 1015.3 |
| 20260905070415 | 67 | 176 | 0.0 | 0.0 | 0.00 | 0.00 | 0.00 | 98 | 1015.3 |
| 20260905065909 | 67 | 176 | 0.0 | 0.0 | 0.00 | 0.00 | 0.00 | 98 | 1015.5 |
| 20260905065407 | 67 | 177 | 0.0 | 0.0 | 0.00 | 0.00 | 0.00 | 98 | 1015.4 |
| 20260905064903 | 67 | 177 | 0.0 | 0.0 | 0.00 | 0.00 | 0.00 | 98 | 1015.4 |
| 20260905064358 | 67 | 154 | 1.0 | 1.0 | 0.00 | 0.00 | 0.00 | 98 | 1015.5 |
| 20260905063856 | 67 | 112 | 0.0 | 0.0 | 0.00 | 0.00 | 0.00 | 98 | 1015.4 |
| 20260905063352 | 67 | 112 | 0.0 | 0.0 | 0.00 | 0.00 | 0.00 | 98 | 1015.4 |
| 20260905062848 | 67 | 111 | 0.0 | 0.0 | 0.00 | 0.00 | 0.00 | 98 | 1015.5 |
| 20260905062343 | 68 | 111 | 0.0 | 0.0 | 0.00 | 0.00 | 0.00 | 98 | 1015.8 |
| 20260905061837 | 67 | 112 | 0.0 | 0.0 | 0.00 | 0.00 | 0.00 | 98 | 1015.9 |
| 20260905061332 | 68 | 112 | 0.0 | 0.0 | 0.00 | 0.00 | 0.00 | 98 | 1015.8 |
| 20260905060826 | 68 | 112 | 0.0 | 0.0 | 0.00 | 0.00 | 0.00 | 98 | 1015.8 |
| 20260905060323 | 68 | 112 | 0.0 | 0.0 | 0.00 | 0.00 | 0.00 | 98 | 1016.1 |
| 20260905055822 | 68 | 112 | 0.0 | 0.0 | 0.00 | 0.00 | 0.00 | 98 | 1016.2 |
| 20260905055317 | 68 | 112 | 0.0 | 0.0 | 0.00 | 0.00 | 0.00 | 98 | 1016.3 |
| 20260905054816 | 68 | 112 | 0.0 | 0.0 | 0.00 | 0.00 | 0.00 | 98 | 1016.3 |
| 20260905054313 | 68 | 112 | 0.0 | 0.0 | 0.00 | 0.00 | 0.00 | 98 | 1016.3 |
| 20260905053812 | 68 | 112 | 0.0 | 0.0 | 0.00 | 0.00 | 0.00 | 98 | 1016.3 |
| 20260905053308 | 68 | 112 | 0.0 | 0.0 | 0.00 | 0.00 | 0.00 | 98 | 1016.5 |
| 20260905052808 | 68 | 112 | 0.0 | 0.0 | 0.00 | 0.00 | 0.00 | 98 | 1016.6 |
| 20260905052306 | 68 | 111 | 0.0 | 0.0 | 0.00 | 0.00 | 0.00 | 98 | 1016.8 |
| 20260905051801 | 68 | 111 | 0.0 | 0.0 | 0.00 | 0.00 | 0.00 | 98 | 1016.7 |
| 20260905051258 | 68 | 111 | 0.0 | 0.0 | 0.00 | 0.00 | 0.00 | 98 | 1016.9 |
| 20260905050755 | 68 | 112 | 0.0 | 0.0 | 0.00 | 0.00 | 0.00 | 98 | 1016.8 |
| 20260905050251 | 68 | 112 | 0.0 | 0.0 | 0.00 | 0.00 | 0.00 | 98 | 1016.5 |
| 20260905045751 | 68 | 111 | 0.0 | 0.0 | 0.00 | 0.00 | 0.00 | 98 | 1016.6 |
| 20260905045246 | 68 | 111 | 0.0 | 0.0 | 0.00 | 0.00 | 0.00 | 98 | 1017.0 |
| 20260905044741 | 67 | 111 | 0.0 | 0.0 | 0.00 | 0.00 | 0.00 | 98 | 1016.7 |
| 20260905044236 | 67 | 111 | 0.0 | 0.0 | 0.00 | 0.00 | 0.00 | 98 | 1017.0 |
| 20260905043735 | 67 | 111 | 0.0 | 0.0 | 0.00 | 0.00 | 0.00 | 98 | 1016.8 |
| 20260905043235 | 67 | 111 | 0.0 | 0.0 | 0.00 | 0.00 | 0.00 | 98 | 1016.9 |
| 20260905042730 | 67 | 111 | 0.0 | 0.0 | 0.00 | 0.00 | 0.00 | 98 | 1016.6 |
| 20260905042229 | 67 | 111 | 0.0 | 0.0 | 0.00 | 0.00 | 0.00 | 98 | 1016.9 |
| 20260905041725 | 67 | 111 | 0.0 | 0.0 | 0.00 | 0.00 | 0.00 | 98 | 1016.7 |
| 20260905041220 | 67 | 111 | 0.0 | 0.0 | 0.00 | 0.00 | 0.00 | 98 | 1016.8 |
| 20260905040715 | 67 | 111 | 0.0 | 0.0 | 0.00 | 0.00 | 0.00 | 98 | 1016.8 |
| 20260905040215 | 68 | 111 | 0.0 | 0.0 | 0.00 | 0.00 | 0.00 | 98 | 1016.8 |
| 20260905035714 | 68 | 111 | 0.0 | 0.0 | 0.00 | 0.15 | 0.15 | 98 | 1016.7 |
| 20260905035211 | 68 | 112 | 0.0 | 0.0 | 0.00 | 0.15 | 0.15 | 98 | 1016.8 |
| 20260905034707 | 68 | 111 | 0.0 | 0.0 | 0.00 | 0.15 | 0.15 | 98 | 1016.8 |
| 20260905034206 | 68 | 111 | 0.0 | 0.0 | 0.00 | 0.15 | 0.15 | 98 | 1016.6 |
| 20260905033705 | 68 | 111 | 0.0 | 0.0 | 0.00 | 0.15 | 0.15 | 98 | 1016.8 |
| 20260905033201 | 68 | 112 | 0.0 | 0.0 | 0.00 | 0.15 | 0.15 | 98 | 1016.8 |
| 20260905032655 | 68 | 112 | 0.0 | 0.0 | 0.00 | 0.15 | 0.15 | 98 | 1016.7 |
| 20260905032150 | 68 | 112 | 0.0 | 0.0 | 0.00 | 0.15 | 0.15 | 98 | 1016.7 |
| 20260905031646 | 68 | 111 | 0.0 | 0.0 | 0.00 | 0.15 | 0.15 | 98 | 1016.7 |
| 20260905031141 | 68 | 111 | 0.0 | 0.0 | 0.00 | 0.15 | 0.15 | 98 | 1016.7 |
| 20260905030636 | 68 | 111 | 0.0 | 0.0 | 0.00 | 0.15 | 0.15 | 98 | 1016.7 |
| 20260905030131 | 68 | 111 | 0.0 | 0.0 | 0.00 | 0.15 | 0.15 | 97 | 1016.7 |
| 20260905025626 | 68 | 111 | 0.0 | 0.0 | 0.00 | 0.15 | 0.15 | 97 | 1016.6 |
| 20260905025122 | 68 | 111 | 0.0 | 0.0 | 0.00 | 0.15 | 0.15 | 97 | 1016.5 |
| 20260905024618 | 68 | 111 | 0.0 | 0.0 | 0.00 | 0.15 | 0.15 | 97 | 1016.8 |
| 20260905024113 | 68 | 111 | 0.0 | 0.0 | 0.00 | 0.15 | 0.15 | 97 | 1016.7 |
| 20260905023608 | 68 | 111 | 0.0 | 0.0 | 0.00 | 0.15 | 0.15 | 97 | 1016.6 |